This demonstration page uses our WeatherBlox Daily Observations layout. Learn more.

Left ArrowRight Arrow

Hourly Observations for July 28, 2022

Temp ( °F °C ) Dew Point ( °F °C ) Humidity (%) Winds ( mph kmh ) Pressure ( in mb ) Visibility ( mi km ) Precip ( " mm )
12:15 am 00:15 Cloudy 72 22.1 67 19.6 86 86 SE 6 9 29.90 1013 10 16 0.00 0.00
12:35 am 00:35 Cloudy 72 22.3 68 19.9 86 86 SE 3 6 29.92 1013 10 16 0.00 0.00
12:55 am 00:55 Mostly Cloudy 72 22 68 20 88 88 SE 3 6 29.91 1013 10 16 0.00 0.00
1:15 am 01:15 Cloudy with Thunderstorms 71 21.7 68 20.1 91 91 E 3 6 29.92 1013 10 16 0.00 0.00
1:35 am 01:35 Cloudy 70 20.9 65 18.6 87 87 WNW 31 50 29.97 1015 10 16 0.01 0.25
1:55 am 01:55 Cloudy 65 18.2 64 17.5 96 96 NNW 7 11 29.97 1015 2 3 0.62 15.75
2:15 am 02:15 Cloudy with Thunderstorms 65 18.6 64 17.7 95 95 NNE 7 11 29.97 1015 7 11 0.04 1.02
2:35 am 02:35 Cloudy with Nearby Thunderstorms 65 18.6 64 17.9 96 96 E 18 30 29.90 1012 5 8 0.12 3.05
2:55 am 02:55 Partly Cloudy with Thunderstorms 65 18.6 64 17.7 95 95 ESE 13 20 29.93 1014 10 16 0.15 3.81
3:15 am 03:15 Clear 66 18.8 64 18 95 95 S 9 15 29.94 1014 10 16 0.00 0.00
3:35 am 03:35 Clear 65 18.6 64 17.7 95 95 W 7 11 29.97 1015 10 16 0.00 0.00
3:55 am 03:55 Clear 65 18.6 64 17.8 95 95 NW 8 13 29.99 1016 10 16 0.00 0.00
4:15 am 04:15 Clear 66 18.7 64 18 96 96 Calm 30.00 1016 10 16 0.00 0.00
4:35 am 04:35 Clear 65 18.5 64 17.8 96 96 N 5 7 29.99 1016 10 16 0.00 0.00
4:55 am 04:55 Clear 65 18.2 63 17.1 93 93 N 10 17 29.99 1016 10 16 0.00 0.00
5:15 am 05:15 Clear 64 18 62 16.8 93 93 N 10 17 29.99 1016 10 16 0.00 0.00
5:35 am 05:35 Clear 64 17.7 62 16.7 94 94 NNE 13 20 30.00 1016 10 16 0.00 0.00
5:55 am 05:55 Clear 64 17.6 62 16.7 95 95 NNE 9 15 30.01 1016 10 16 0.00 0.00
6:15 am 06:15 Clear 64 17.6 62 16.8 95 95 NNE 9 15 30.01 1016 10 16 0.00 0.00
6:35 am 06:35 Partly Cloudy 64 17.5 62 16.9 96 96 NE 9 15 30.00 1016 7 11 0.00 0.00
6:55 am 06:55 Mostly Cloudy 64 17.6 62 16.8 95 95 NE 7 11 30.01 1016 10 16 0.00 0.00
7:15 am 07:15 Mostly Cloudy 64 17.7 62 16.8 95 95 NE 6 9 30.03 1017 7 11 0.00 0.00
7:35 am 07:35 Cloudy 64 17.7 62 16.6 93 93 NE 9 15 30.03 1017 10 16 0.00 0.00
7:55 am 07:55 Mostly Cloudy 64 17.8 61 16.1 90 90 NE 6 9 30.04 1017 10 16 0.00 0.00
8:15 am 08:15 Mostly Cloudy 64 17.8 61 16.1 90 90 NNE 5 7 30.05 1017 10 16 0.00 0.00
8:35 am 08:35 Partly Cloudy 65 18.2 61 16.2 88 88 NNE 6 9 30.05 1018 10 16 0.00 0.00
8:55 am 08:55 Sunny 67 19.4 61 16 81 81 NE 7 11 30.05 1018 10 16 0.00 0.00
9:15 am 09:15 Sunny 67 19.2 61 16.1 82 82 NNE 10 17 30.05 1018 10 16 0.00 0.00
9:35 am 09:35 Partly Cloudy 66 19 61 16.1 83 83 NNE 9 15 30.06 1018 10 16 0.00 0.00
9:55 am 09:55 Mostly Cloudy 66 19 60 15.8 82 82 NNE 10 17 30.07 1018 10 16 0.00 0.00
10:15 am 10:15 Partly Cloudy 67 19.3 60 15.6 79 79 NNE 12 19 30.06 1018 10 16 0.00 0.00
10:35 am 10:35 Mostly Cloudy 67 19.5 60 15.6 78 78 NNE 12 19 30.06 1018 10 16 0.00 0.00
10:55 am 10:55 Cloudy 68 19.8 60 15.5 76 76 NNE 12 19 30.06 1018 10 16 0.00 0.00
11:15 am 11:15 Mostly Cloudy 68 20.1 60 15.3 74 74 NNE 10 17 30.07 1018 10 16 0.00 0.00
11:35 am 11:35 Mostly Cloudy 69 20.6 60 15.3 72 72 NE 13 20 30.06 1018 10 16 0.00 0.00
11:55 am 11:55 Mostly Cloudy 69 20.6 60 15.5 73 73 NE 10 17 30.06 1018 10 16 0.00 0.00
12:15 pm 12:15 Partly Cloudy 72 22 60 15.4 66 66 NE 12 19 30.05 1018 10 16 0.00 0.00
12:35 pm 12:35 Mostly Cloudy 71 21.6 59 14.8 65 65 NE 9 15 30.05 1018 10 16 0.00 0.00
12:55 pm 12:55 Partly Cloudy 72 22.3 59 15.2 64 64 ENE 10 17 30.05 1018 10 16 0.00 0.00
1:15 pm 13:15 Sunny 73 22.8 61 15.9 65 65 ENE 8 13 30.04 1017 10 16 0.00 0.00
1:35 pm 13:35 Mostly Cloudy 73 22.5 60 15.4 64 64 ENE 10 17 30.05 1017 10 16 0.00 0.00
1:55 pm 13:55 Mostly Cloudy 73 22.7 59 15.1 62 62 NE 9 15 30.04 1017 10 16 0.00 0.00
2:15 pm 14:15 Partly Cloudy 74 23.3 60 15.5 62 62 E 8 13 30.04 1017 10 16 0.00 0.00
2:35 pm 14:35 Mostly Cloudy 74 23.5 60 15.6 61 61 E 8 13 30.04 1017 10 16 0.00 0.00
2:55 pm 14:55 Partly Cloudy 74 23.6 59 15 59 59 NE 7 11 30.04 1017 10 16 0.00 0.00
3:15 pm 15:15 Partly Cloudy 75 23.7 59 14.9 58 58 NE 6 9 30.04 1017 10 16 0.00 0.00
3:35 pm 15:35 Sunny 74 23.5 59 14.8 58 58 NE 5 7 30.03 1017 10 16 0.00 0.00
3:55 pm 15:55 Sunny 75 24 61 16.2 62 62 E 3 6 30.01 1016 10 16 0.00 0.00
4:15 pm 16:15 Sunny 75 24.1 61 16.2 61 61 E 5 7 30.01 1016 10 16 0.00 0.00
4:35 pm 16:35 Sunny 76 24.3 61 15.9 60 60 Calm 30.01 1016 10 16 0.00 0.00
4:55 pm 16:55 Partly Cloudy 76 24.4 62 16.5 61 61 E 7 11 30.00 1016 10 16 0.00 0.00
5:15 pm 17:15 Partly Cloudy 76 24.3 62 16.5 62 62 NNE 6 9 30.01 1016 10 16 0.00 0.00
5:35 pm 17:35 Sunny 76 24.2 61 15.9 60 60 ENE 6 9 30.00 1016 10 16 0.00 0.00
5:55 pm 17:55 Mostly Cloudy 74 23.5 60 15.5 61 61 ENE 3 6 30.01 1016 10 16 0.00 0.00
6:15 pm 18:15 Cloudy 74 23.3 60 15.8 63 63 ENE 5 7 30.00 1016 10 16 0.00 0.00
6:35 pm 18:35 Cloudy 73 22.8 63 17.3 71 71 Calm 30.00 1016 10 16 0.00 0.00
6:55 pm 18:55 Cloudy 73 22.9 62 16.5 67 67 Calm 30.00 1016 10 16 0.00 0.00
7:15 pm 19:15 Cloudy 73 22.6 63 17 71 71 ENE 3 6 30.02 1016 10 16 0.00 0.00
7:35 pm 19:35 Cloudy 72 22.3 63 17.4 74 74 Calm 30.01 1016 10 16 0.00 0.00
7:55 pm 19:55 Partly Cloudy 72 22.2 64 17.8 76 76 Calm 30.02 1017 10 16 0.00 0.00
8:15 pm 20:15 Partly Cloudy 71 21.7 65 18.2 81 81 Calm 30.02 1017 10 16 0.00 0.00
8:35 pm 20:35 Cloudy 71 21.6 65 18.6 83 83 Calm 30.02 1017 10 16 0.00 0.00
8:55 pm 20:55 Cloudy 70 21.1 66 18.9 87 87 Calm 30.03 1017 10 16 0.00 0.00
9:15 pm 21:15 Cloudy 70 21.1 65 18.6 86 86 Calm 30.04 1017 10 16 0.00 0.00
9:35 pm 21:35 Cloudy 70 21.2 65 18.5 85 85 Calm 30.04 1017 10 16 0.00 0.00
9:55 pm 21:55 Cloudy 69 20.6 66 19.1 91 91 Calm 30.04 1017 10 16 0.00 0.00
10:15 pm 22:15 Cloudy 68 20.1 65 18.6 91 91 SE 3 6 30.06 1018 10 16 0.00 0.00
10:35 pm 22:35 Cloudy 68 20 65 18.1 89 89 SSE 3 6 30.06 1018 10 16 0.00 0.00
10:55 pm 22:55 Cloudy 68 20.1 64 18 88 88 SE 3 6 30.05 1017 10 16 0.00 0.00
11:15 pm 23:15 Cloudy 68 19.8 64 17.8 88 88 SSE 3 6 30.05 1018 10 16 0.00 0.00
11:35 pm 23:35 Cloudy 67 19.5 64 17.7 89 89 S 5 7 30.05 1018 10 16 0.00 0.00
11:55 pm 23:55 Mostly Cloudy 66 19.1 64 17.5 91 91 SSE 5 7 30.05 1018 10 16 0.00 0.00

Powered by AerisWeather